| time (UTC) | temp F | wind direction | speed MPH | gust MPH | rain 1hr in | rain 24hr in | rain mn in | humidity % | barometer mb |
| 20260504081537 | 47 | 261 | 0.0 | 2.0 | 0.00 | 0.00 | 0.00 | 57 | 1014.3 |
| 20260504050016 | 49 | 276 | 0.0 | 2.0 | 0.00 | 0.00 | 0.00 | 55 | 1014.5 |
| 20260504044515 | 49 | 228 | 0.0 | 1.0 | 0.00 | 0.00 | 0.00 | 56 | 1014.5 |
| 20260504043014 | 49 | 226 | 0.0 | 2.0 | 0.00 | 0.00 | 0.00 | 55 | 1014.4 |
| 20260504041511 | 50 | 246 | 0.0 | 2.0 | 0.00 | 0.00 | 0.00 | 54 | 1014.3 |
| 20260504040008 | 50 | 246 | 0.0 | 2.0 | 0.00 | 0.00 | 0.00 | 53 | 1014.1 |
| 20260504034508 | 50 | 259 | 0.0 | 1.0 | 0.00 | 0.00 | 0.00 | 53 | 1014.2 |
| 20260504033009 | 51 | 257 | 0.0 | 0.0 | 0.00 | 0.00 | 0.00 | 52 | 1014.1 |
| 20260504031507 | 51 | 250 | 1.0 | 2.0 | 0.00 | 0.00 | 0.00 | 51 | 1014.1 |
| 20260504030006 | 51 | 255 | 0.0 | 1.0 | 0.00 | 0.00 | 0.00 | 52 | 1014.0 |
| 20260504024505 | 51 | 253 | 0.0 | 2.0 | 0.00 | 0.00 | 0.00 | 52 | 1013.9 |
| 20260504023005 | 52 | 255 | 0.0 | 1.0 | 0.00 | 0.00 | 0.00 | 51 | 1013.9 |
| 20260504021504 | 52 | 254 | 0.0 | 1.0 | 0.00 | 0.00 | 0.00 | 50 | 1014.0 |
| 20260504020006 | 52 | 253 | 0.0 | 1.0 | 0.00 | 0.00 | 0.00 | 49 | 1013.9 |
| 20260504014502 | 53 | 253 | 0.0 | 1.0 | 0.00 | 0.00 | 0.00 | 48 | 1013.9 |
| 20260504013002 | 54 | 253 | 0.0 | 2.0 | 0.00 | 0.00 | 0.00 | 46 | 1013.7 |
| 20260504011501 | 54 | 250 | 0.0 | 1.0 | 0.00 | 0.00 | 0.00 | 45 | 1013.5 |
| 20260504010109 | 55 | 248 | 0.0 | 2.0 | 0.00 | 0.00 | 0.00 | 45 | 1013.6 |
| 20260504010001 | 55 | 246 | 0.0 | 2.0 | 0.00 | 0.00 | 0.00 | 45 | 1013.5 |
| 20260504004601 | 55 | 248 | 0.0 | 1.0 | 0.00 | 0.00 | 0.00 | 43 | 1013.4 |
| 20260504003100 | 56 | 243 | 0.0 | 1.0 | 0.00 | 0.00 | 0.00 | 40 | 1013.2 |
| 20260504001558 | 57 | 221 | 0.0 | 2.0 | 0.00 | 0.00 | 0.00 | 39 | 1013.0 |
| 20260504000138 | 58 | 253 | 0.0 | 2.0 | 0.00 | 0.00 | 0.00 | 37 | 1012.9 |
| 20260503234601 | 60 | 283 | 0.0 | 4.0 | 0.00 | 0.00 | 0.00 | 35 | 1012.7 |
| 20260503233056 | 62 | 225 | 0.0 | 9.0 | 0.00 | 0.00 | 0.00 | 32 | 1012.7 |
| 20260503231555 | 64 | 248 | 0.0 | 5.0 | 0.00 | 0.00 | 0.00 | 31 | 1012.7 |
| 20260503230057 | 63 | 224 | 3.0 | 8.0 | 0.00 | 0.00 | 0.00 | 30 | 1012.7 |
| 20260503224554 | 63 | 211 | 2.0 | 8.0 | 0.00 | 0.00 | 0.00 | 30 | 1012.6 |
| 20260503223053 | 64 | 176 | 2.0 | 10.0 | 0.00 | 0.00 | 0.00 | 29 | 1012.6 |
| 20260503221556 | 64 | 226 | 1.0 | 6.0 | 0.00 | 0.00 | 0.00 | 30 | 1012.6 |
| 20260503220050 | 63 | 248 | 2.0 | 11.0 | 0.00 | 0.00 | 0.00 | 30 | 1012.6 |
| 20260503214548 | 62 | 342 | 3.0 | 11.0 | 0.00 | 0.00 | 0.00 | 31 | 1012.6 |
| 20260503213148 | 62 | 302 | 2.0 | 7.0 | 0.00 | 0.00 | 0.00 | 30 | 1012.6 |
| 20260503211552 | 62 | 229 | 4.0 | 11.0 | 0.00 | 0.00 | 0.00 | 30 | 1012.5 |
| 20260503210045 | 64 | 242 | 3.0 | 12.0 | 0.00 | 0.00 | 0.00 | 29 | 1012.5 |
| 20260503204543 | 62 | 245 | 2.0 | 7.0 | 0.00 | 0.00 | 0.00 | 31 | 1012.6 |
| 20260503203100 | 62 | 246 | 2.0 | 8.0 | 0.00 | 0.00 | 0.00 | 30 | 1012.7 |
| 20260503201541 | 62 | 200 | 3.0 | 9.0 | 0.00 | 0.00 | 0.00 | 29 | 1012.7 |
| 20260503200037 | 61 | 204 | 3.0 | 8.0 | 0.00 | 0.00 | 0.00 | 31 | 1012.9 |
| 20260503194540 | 61 | 204 | 3.0 | 10.0 | 0.00 | 0.00 | 0.00 | 32 | 1013.1 |
| 20260503193033 | 60 | 137 | 4.0 | 17.0 | 0.00 | 0.00 | 0.00 | 31 | 1013.2 |
| 20260503191531 | 59 | 250 | 6.0 | 16.0 | 0.00 | 0.00 | 0.00 | 31 | 1013.3 |
| 20260503190035 | 58 | 266 | 6.0 | 13.0 | 0.00 | 0.00 | 0.00 | 33 | 1013.6 |
| 20260503184528 | 58 | 228 | 3.0 | 13.0 | 0.00 | 0.00 | 0.00 | 34 | 1013.8 |
| 20260503183029 | 58 | 298 | 6.0 | 12.0 | 0.00 | 0.00 | 0.00 | 34 | 1014.0 |
| 20260503181526 | 57 | 236 | 5.0 | 14.0 | 0.00 | 0.00 | 0.00 | 35 | 1014.0 |
| 20260503180028 | 56 | 226 | 5.0 | 13.0 | 0.00 | 0.00 | 0.00 | 35 | 1014.1 |
| 20260503174517 | 55 | 27 | 3.0 | 12.0 | 0.00 | 0.00 | 0.00 | 37 | 1014.3 |
| 20260503173033 | 54 | 4 | 2.0 | 12.0 | 0.00 | 0.00 | 0.00 | 38 | 1014.4 |
| 20260503171515 | 55 | 215 | 3.0 | 16.0 | 0.00 | 0.00 | 0.00 | 36 | 1014.4 |